Regional Weather Roundup
Issued by NWS Grand Forks, ND

Home | Current Version | Previous Version | Graphics & Text | Print | Product List | Glossary On
Versions: 1 2 3 4 5 6 7 8 9 10 11 12 13 14 15 16 17 18 19 20 21 22 23 24 25 26 27 28 29 30 31 32 33 34 35 36 37 38 39 40 41 42 43 44 45 46 47 48 49 50
000
ASUS43 KFGF 301210
RWRFGF
PRAIRIE TO PINES  WEATHER ROUNDUP
NATIONAL WEATHER SERVICE EASTERN NORTH DAKOTA/GRAND FORKS ND
600 AM CST FRI JAN 30 2015

 **SATELLITE DATA USED TO AUGMENT SKY COVER AT AUTOMATED STATIONS**
 *****  WEATHER ACROSS EASTERN NORTH DAKOTA  *****

CITY           SKY/WX    TMP DP  RH WIND       PRES   REMARKS
GRAND FORKS    CLOUDY     9   3  77 SE12      30.43F WCI  -6
6HR MIN TEMP:   6; 6HR MAX TEMP:  10;

GRAND FRKS AFB CLOUDY     9   2  74 S15       30.41F WCI  -8
GRAND FRKS NWS   N/A      9 N/A N/A S9          N/A  WCI  -5
DEVILS LAKE    CLOUDY    16  10  79 SE13      30.26F WCI   2
6HR MIN TEMP:  10; 6HR MAX TEMP:  18;

FARGO          CLOUDY    11   3  70 SE9       30.45F WCI  -2
WAHPETON ARPT  CLOUDY    12   5  73 S7        30.47F WCI   2
$$

 ***** WEATHER ACROSS CENTRAL AND WESTERN NORTH DAKOTA  *****

CITY           SKY/WX    TMP DP  RH WIND       PRES   REMARKS
BISMARCK       CLEAR     19  17  92 SE10      30.27F WCI   7
6HR MIN TEMP:  15; 6HR MAX TEMP:  20;

MINOT          CLEAR     22  16  78 S15       30.13F WCI   9
6HR MIN TEMP:  14; 6HR MAX TEMP:  22;

JAMESTOWN      CLOUDY    20  16  84 S13       30.32F WCI   7
6HR MIN TEMP:  17; 6HR MAX TEMP:  20;

MINOT AFB      CLEAR     17  17  99 S7        30.14F WCI   8
GARRISON         N/A     19  17  92 S9        30.17F WCI   8
WILLISTON      CLEAR     17  13  84 CALM      30.15S
6HR MIN TEMP:  15; 6HR MAX TEMP:  26;

DICKINSON      CLEAR     26  17  68 S10       30.14S WCI  16
6HR MIN TEMP:  22; 6HR MAX TEMP:  28;

HETTINGER      CLEAR     22  16  78 S6        30.20F WCI  14
6HR MIN TEMP:  22; 6HR MAX TEMP:  26;

$$

 *****  OTHER AIRPORT OBSERVATIONS IN OUR AREA  *****

CITY           SKY/WX    TMP DP  RH WIND       PRES   REMARKS
WALHALLA         N/A      9   9 100 S13       30.34F WCI  -7
GRAFTON AIRPOR NOT AVBL
VALLEY CITY AR CLOUDY    18  18 100 S12G17    30.36F WCI   5
CANDO          CLOUDY    16  14  93 SE13      30.25F WCI   2
CAVALIER APRT  FAIR       9   5  85 S13       30.36F WCI  -7
GWINNER        SUNNY     19  18  93 S7        30.42F WCI  10
SHEYENNE NWR     N/A     12   8  82 SE7       29.95  WCI   1
ROLLA          CLOUDY    14  14 100 S15       30.20F WCI  -1
 ***** THE ABOVE OBSERVATIONS ARE NON NWS ARE NOT QUALITY
       CONTROLLED AND MAY MIS-REPORT RAIN FOR SNOW...
$$

  *****  WEATHER ACROSS NORTHERN MINNESOTA  *****

CITY           SKY/WX    TMP DP  RH WIND       PRES   REMARKS
FLAG ISLAND    CLOUDY     0  -6  78 S10       30.41F WCI -17
WARROAD        PTCLDY     1  -6  71 S5        30.42F WCI  -8
ROSEAU         CLOUDY     3  -2  78 S9        30.42F WCI -11
HALLOCK        LGT SNOW   7   1  78 S13       30.41F WCI  -9
THF RVR FALLS  CLOUDY     5   1  85 S7        30.43F WCI  -7
6HR MIN TEMP:   0; 6HR MAX TEMP:   5;

BAUDETTE       CLOUDY    -2  -7  79 CALM      30.42F
6HR MIN TEMP:  -6; 6HR MAX TEMP:  -2;

WASKISH        CLOUDY     0  -6  78 CALM      30.44F
CROOKSTON      CLOUDY     9   3  78 S8        30.46F WCI  -4
STEPHEN NDAWN    N/A      7   1  78 S10         N/A  WCI  -8
GREENBUSH NDAW   N/A      3   0  85 S12         N/A  WCI -13
$$
  *****  WEATHER ACROSS CENTRAL AND WEST MINNESOTA  *****

CITY           SKY/WX    TMP DP  RH WIND       PRES   REMARKS
FOSSTON        CLOUDY     3   0  85 S8        30.43F WCI -10
BEMIDJI        MOCLDY     1  -2  85 S6        30.42F WCI -10
PARK RAPIDS    MOCLDY     5   1  83 S5        30.42F WCI  -4
6HR MIN TEMP:   2; 6HR MAX TEMP:   5;

ELBOW LAKE     FAIR       9   4  79 S5        30.46S WCI   1
WADENA         MOCLDY     5   1  85 S3        30.44S
DETROIT LAKES  PTCLDY     9   5  85 S7        30.43F WCI  -3
MOORHEAD       MOCLDY    10   7  85 SE8       30.46F WCI  -1
FERGUS FALLS   MOCLDY     9   1  72 S7        30.50S WCI  -3
MORRIS MN      PTCLDY     9   5  85 SE3       30.46S
STAPLES        CLOUDY     5   1  85 CALM      30.45F
$$
  *****  WEATHER ELSEWHERE ACROSS MINNESOTA  *****

CITY           SKY/WX    TMP DP  RH WIND       PRES   REMARKS
DULUTH         MOCLDY    -1  -6  79 NW6       30.43R WCI -13
6HR MIN TEMP:  -1; 6HR MAX TEMP:   6; 6HR PCP: TRACE;

INTRNTL FALLS  MOCLDY   -10 -14  82 CALM      30.44F
6HR MIN TEMP: -19; 6HR MAX TEMP:  -8;

ELY            NOT AVBL
CLOQUET        PTCLDY     0  -6  78 W3        30.45F
WHEATON        CLOUDY     9   7  92 SE7       30.50S WCI  -3
BRAINERD       MOCLDY     5   0  79 CALM      30.47F
6HR MIN TEMP:   3; 6HR MAX TEMP:   6;

HIBBING        MOCLDY    -7 -13  75 CALM      30.43F
6HR MIN TEMP: -10; 6HR MAX TEMP:  -1;

ALEXANDRIA     PTCLDY     8   3  80 S5        30.45S WCI   0
6HR MIN TEMP:   6; 6HR MAX TEMP:   8;

SAINT CLOUD    MOCLDY    10   4  76 CALM      30.50S
6HR MIN TEMP:   9; 6HR MAX TEMP:  11;

MINNEAPOLIS    MOCLDY    12   3  67 NE5       30.52F WCI   4
6HR MIN TEMP:  12; 6HR MAX TEMP:  15;

$$

  *****  WEATHER ACROSS SOUTH DAKOTA  *****

CITY           SKY/WX    TMP DP  RH WIND       PRES   REMARKS
SIOUX FALLS    MOCLDY    19  15  84 S6        30.46F WCI  11
6HR MIN TEMP:  18; 6HR MAX TEMP:  22;

BROOKINGS      NOT AVBL
WATERTOWN      CLOUDY    17  14  88 S13       30.39F WCI   4
6HR MIN TEMP:  15; 6HR MAX TEMP:  18;

HURON          CLEAR     17  14  88 SE8       30.43F WCI   7
6HR MIN TEMP:  17; 6HR MAX TEMP:  19;

SISSETON         N/A     15  13  91 SE8       30.43F WCI   4
ABERDEEN       CLEAR     17  13  84 S6        30.42S WCI   9
6HR MIN TEMP:  14; 6HR MAX TEMP:  19;

MITCHELL       CLEAR     20  17  88 SE7       30.45F WCI  11
PIERRE         CLEAR     20  18  92 SE10      30.29F WCI   9
6HR MIN TEMP:  20; 6HR MAX TEMP:  22;

MOBRIDGE       PTCLDY    21  18  88 S15       30.25F WCI   8
RAPID CITY     PTCLDY    19  14  81 CALM      30.19F
6HR MIN TEMP:  18; 6HR MAX TEMP:  25;

$$

  *****  SOME WEATHER IN NEARBY STATES *****

CITY           SKY/WX    TMP DP  RH WIND       PRES   REMARKS
GLASGOW MT     CLEAR     20  17  88 NW9       30.16F WCI   9
6HR MIN TEMP:  20; 6HR MAX TEMP:  28;

GREAT FALLS MT CLEAR     29  18  63 SW13      30.20S WCI  19
6HR MIN TEMP:  25; 6HR MAX TEMP:  35;

CHEYENNE WY    CLOUDY    27  22  81 W7        30.20F WCI  19
6HR MIN TEMP:  26; 6HR MAX TEMP:  30;

SCOTTSBLUFF NE CLOUDY    29  22  75 E8        30.24F WCI  21
6HR MIN TEMP:  28; 6HR MAX TEMP:  29;

OMAHA NE       PTCLDY    19  17  92 CALM      30.53F
6HR MIN TEMP:  18; 6HR MAX TEMP:  26;

DES MOINES IA  CLEAR     19  12  74 CALM      30.55S
6HR MIN TEMP:  18; 6HR MAX TEMP:  25;

DAVENPORT IA   CLEAR     16   9  74 N8        30.51S WCI   5
6HR MIN TEMP:  16; 6HR MAX TEMP:  24;

CHICAGO IL     PTCLDY    21   9  59 N13       30.46R WCI   9
6HR MIN TEMP:  21; 6HR MAX TEMP:  29; 6HR PCP: TRACE;

EAU CLAIRE WI  PTCLDY     4  -2  76 CALM      30.50S
6HR MIN TEMP:   2; 6HR MAX TEMP:  12;

LA CROSSE WI   CLEAR     12   4  70 N3        30.54S
6HR MIN TEMP:  10; 6HR MAX TEMP:  20;

$$

  *****  SOME NATIONAL WEATHER *****

CITY           SKY/WX    TMP DP  RH WIND       PRES   REMARKS
LA GUARDIA NY  FLURRIES  33  25  72 NW12      29.84S WCI  24
6HR MIN TEMP:  32; 6HR MAX TEMP:  35; 6HR PCP:  0.03;

RALEIGH NC     PTCLDY    41  27  57 VRB5      30.00R
6HR MIN TEMP:  36; 6HR MAX TEMP:  41; 6HR PCP: TRACE;

ATLANTA GA     PTCLDY    38  25  59 NW16      30.23R
6HR MIN TEMP:  38; 6HR MAX TEMP:  55;

NEW ORLEANS LA PTCLDY    50  40  68 N14       30.33R
6HR MIN TEMP:  50; 6HR MAX TEMP:  61;

OKLAHOMA CITY  MOCLDY    36  26  67 CALM      30.50S
6HR MIN TEMP:  35; 6HR MAX TEMP:  43;

ALBUQUERQUE NM CLOUDY    36  27  69 E21       30.30F
6HR MIN TEMP:  34; 6HR MAX TEMP:  42; 6HR PCP:  0.02;

SALT LAKE CITY MOCLDY    37  35  92 CALM      30.18F
6HR MIN TEMP:  37; 6HR MAX TEMP:  39;

LOS ANGELES CA LGT RAIN  64  47  53 CALM      29.93F


USA.gov is the U.S. government's official web portal to all federal, state and local government web resources and services.